TIME,DELAY(SENSOR),PRES,OXYGEN,RAWTEMP,T(OPTODE),TCPHASE,FLUOR,BETA(BETA700),BETA(BETA412),BETA(BETA440),CDOM,C(CSC),ED(ED412.40),ED(ED444.00),ED(ED489.70),ED(ED554.30),LU(LU411.80),LU(LU443.40),LU(LU489.60),LU(LU554.10),COMP,TILTX,TILTY,CHECK
1338781889,5805,869.5499877929688000,43.0028495788574200,661.6289062500000000,4.5743308067321780,54.5680007934570300,53,100,91,77,83,15362,2147759844,2147422482,2148008530,2147872841,2147640475,2147064420,2148257325,2147201773,759,4,14,32246
1338785485,5809,956.9799804687500000,47.7126617431640600,670.9296875000000000,4.2674808502197270,53.9973716735839840,53,100,87,79,83,15360,2147757970,2147422994,2148010075,2147876077,2147645549,2147058560,2148258944,2147198738,2372,4,14,9808
1338789085,5811,961.1500244140625000,48.5114784240722660,672.8275756835938000,4.2047438621521000,53.9149017333984400,53,109,89,80,83,15360,2147759076,2147422217,2148002770,2147878107,2147643995,2147063131,2148262546,2147199579,3237,4,13,60225
1338792685,5808,994.0999755859375000,49.1853485107421900,676.9215698242188000,4.0692811012268070,53.8691482543945300,53,99,88,80,84,15361,2147758098,2147421604,2148006912,2147875776,2147646418,2147058660,2148264164,2147197641,373,4,13,43057
1338796285,5810,1006.3200073242188000,48.9524803161621100,676.2796020507812000,4.0905342102050780,53.8930015563964840,53,100,86,81,83,15358,2147758235,2147424237,2148007972,2147877915,2147648292,2147056521,2148258569,2147200850,112,4,13,17199
1338799885,5809,1018.7299804687500000,48.6881790161132800,675.6378784179688000,4.1117739677429200,53.9217605590820300,52,98,88,78,84,15356,2147759652,2147423716,2148007725,2147877851,2147642761,2147060233,2148264091,2147200438,2790,4,13,33714
1338803485,5807,1021.6599731445312000,47.9341087341308600,673.6135253906250000,4.1787548065185550,54.0007896423339840,52,100,90,80,84,15361,2147760640,2147424274,2148007789,2147879305,2147645293,2147057837,2148258907,2147202477,611,4,13,63693
1338807085,5808,1040.8699951171875000,47.4355087280273440,672.1547241210938000,4.2269940376281740,54.0568389892578100,53,99,88,78,83,15358,2147760813,2147423076,2148006418,2147879753,2147644763,2147061394,2148258962,2147202386,429,4,13,22702
1338810685,5809,1029.0600585937500000,47.1614990234375000,672.1198730468750000,4.2281441688537600,54.0916900634765600,53,98,86,79,82,15357,2147759579,2147422857,2148005961,2147875803,2147644955,2147056484,2148262875,2147199268,1799,4,13,52157
1338814285,5806,1025.1999511718750000,47.5122795104980500,673.4467163085938000,4.1842751502990720,54.0578918457031250,53,104,88,78,84,15357,2147760073,2147421586,2148005568,2147872978,2147644434,2147060269,2148259428,2147200438,418,4,13,6698
1338817885,5810,1025.4899902343750000,47.4280509948730500,673.5208129882812000,4.1818242073059080,54.0720405578613300,53,100,90,80,83,15337,2147756480,2147420050,2148006802,2147875657,2147643776,2147058176,2148259721,2147196790,3386,4,13,7680
1338821485,5806,1006.5800170898438000,48.1733283996582000,675.5917968750000000,4.1133022308349610,53.9951591491699200,53,98,90,78,84,15355,2147757430,2147421257,2148007104,2147878363,2147649362,2147059437,2148262381,2147198244,754,4,13,21577
1338825085,5811,1017.4500122070312000,48.5421714782714840,677.3460083007812000,4.0552229881286620,53.9631004333496100,53,101,88,79,82,15353,2147757888,2147420425,2148006272,2147876626,2147646592,2147059126,2148264411,2147198674,394,4,13,14377
1338828685,5808,1018.6599731445312000,48.3676414489746100,676.2921142578125000,4.0901198387146000,53.9733695983886700,53,100,88,78,83,15354,2147761024,2147422299,2148007424,2147875328,2147643072,2147061449,2148267456,2147200832,3352,4,13,1683
1338832285,5807,1016.4600219726562000,48.5583190917968750,677.7390747070312000,4.0422039031982420,53.9668197631835940,53,103,85,82,84,15353,2147761819,2147420315,2148005778,2147877686,2147647643,2147060507,2148263533,2147201380,3139,4,13,44331
1338835885,5811,1018.5200195312500000,48.5859603881835940,677.6602172851562000,4.0448188781738280,53.9607582092285160,53,102,90,79,83,15345,2147760393,2147421056,2148005248,2147875894,2147645796,2147052461,2148263570,2147199195,3354,4,13,26060
1338839485,5809,1021.9099731445312000,48.6048202514648440,677.3026123046875000,4.0566639900207520,53.9597511291503900,53,102,87,80,83,15347,2147757924,2147422363,2148005677,2147875072,2147646281,2147054902,2148262372,2147201929,238,4,13,50382
1338843085,5807,1031.1600341796875000,48.3336601257324200,675.5947875976562000,4.1132011413574220,53.9735908508300800,52,100,86,78,83,15324,2147758555,2147421202,2148007899,2147878116,2147644827,2147056923,2148263972,2147198610,3092,4,13,27340
1338846685,5808,1028.0600585937500000,48.1402511596679700,675.2777709960938000,4.1236929893493650,53.9968795776367200,54,104,90,80,83,15349,2147763529,2147424429,2148003492,2147877476,2147643977,2147056777,2148262262,2147200301,3566,4,14,595
1338850285,5808,1038.8299560546875000,47.8107986450195300,673.9298706054688000,4.1682891845703125,54.0213890075683600,53,99,85,79,84,15344,2147759378,2147421842,2148006006,2147875190,2147644288,2147061229,2148261979,2147199954,3487,4,13,13160
1338853885,5811,1035.6700439453125000,47.2653694152832000,674.1276245117188000,4.1617531776428220,54.1035995483398440,52,101,87,80,84,15344,2147760850,2147416758,2148008448,2147876928,2147647250,2147059053,2148261513,2147199469,13,4,13,42035
1338857485,5808,1037.5200195312500000,47.4090614318847660,673.3975219726562000,4.1859021186828610,54.0711784362793000,52,99,87,79,84,15344,2147759497,2147421714,2148007442,2147876937,2147647670,2147056118,2148262107,2147200640,91,4,13,20461
1338861085,5811,1030.3199462890625000,47.2324790954589840,672.8319702148438000,4.2045989036560060,54.0946807861328100,52,99,88,80,83,15342,2147760886,2147424173,2148006656,2147876845,2147643684,2147061421,2148265033,2147198692,3389,4,13,10574
1338864685,5810,1029.9699707031250000,47.5231590270996100,673.5363769531250000,4.1813049316406250,54.0578804016113300,53,98,91,78,83,15313,2147762011,2147422180,2148007542,2147877211,2147646546,2147061376,2148262482,2147200320,1002,4,13,35333
1338868285,5809,1017.9699707031250000,47.2447204589843750,674.2974243164062000,4.1561322212219240,54.1115188598632800,52,112,88,79,84,15343,2147761682,2147421915,2148006747,2147878217,2147643163,2147057645,2148258870,2147200237,290,4,13,601
1338871885,5810,1025.3399658203125000,47.9659690856933600,675.6799926757812000,4.1103820800781250,54.0256004333496100,53,100,89,79,84,15342,2147761453,2147421165,2148009846,2147875501,2147645522,2147060800,2148263204,2147201435,91,5,13,54567
1338875485,5809,1015.7000122070312000,48.1176910400390600,676.2954711914062000,4.0900101661682130,54.0126190185546900,52,104,87,78,84,15342,2147761188,2147422144,2148010102,2147877833,2147644032,2147060544,2148262939,2147202212,112,4,13,15538
1338879085,5808,1012.1900024414062000,48.0455284118652340,677.3428955078125000,4.0553259849548340,54.0367889404296900,53,101,89,80,83,15346,2147759734,2147421129,2148004443,2147879049,2147645083,2147064603,2148265225,2147198601,454,4,13,44933
1338882685,5808,1013.4899902343750000,48.2303504943847660,677.5369262695312000,4.0489010810852050,54.0134811401367200,53,102,87,80,82,15342,2147760621,2147421577,2148005668,2147877376,2147644818,2147062875,2148261632,2147197138,415,4,13,56815
1338886285,5806,1018.7199707031250000,48.4192504882812500,676.9033203125000000,4.0698847770690920,53.9805793762207000,52,104,90,79,83,15340,2147758427,2147420800,2148009353,2147874596,2147643776,2147059922,2148267538,2147201700,252,4,13,45441
1338889885,5806,1023.8200073242188000,47.3640899658203100,676.0783081054688000,4.0971980094909670,54.1100807189941400,52,101,87,79,84,15341,2147761600,2147419904,2148006601,2147877138,2147643392,2147057828,2148261933,2147196608,3586,4,14,59998
1338893485,5810,1038.6999511718750000,47.3750190734863300,673.3040771484375000,4.1889882087707520,54.0763397216796900,52,100,85,80,84,15339,2147759707,2147423204,2148006308,2147876982,2147643382,2147062198,2148264502,2147201325,20,4,13,47396
1338897085,5809,1045.5999755859375000,46.8897895812988300,672.3057250976562000,4.2220001220703125,54.1310691833496100,52,101,124,80,83,15334,2147760804,2147421997,2148008182,2147877266,2147642779,2147059401,2148263890,2147195090,777,4,13,32888
1338900685,5809,1039.3000488281250000,46.7406883239746100,672.2838745117188000,4.2227230072021480,54.1523208618164060,53,101,86,81,83,15336,2147757522,2147423040,2148007506,2147875126,2147642715,2147058450,2148266477,2147197010,34,4,13,24106
1338904285,5810,1008.5300292968750000,45.9964408874511700,670.4133300781250000,4.2845439910888670,54.2388916015625000,52,100,86,79,83,15335,2147759817,2147420891,2148008100,2147877339,2147644827,2147064594,2148263890,2147203081,6,4,13,14077
1338907885,5808,1000.6900024414062000,46.6384887695312500,672.5266113281250000,4.2146968841552730,54.1737098693847660,52,100,89,79,83,15337,2147760210,2147420333,2148009042,2147875739,2147645778,2147058276,2148260242,2147198592,101,4,13,17340
1338911485,5808,999.5599975585938000,46.5405998229980500,673.1215209960938000,4.1950259208679200,54.1935081481933600,54,99,88,78,83,15336,2147758793,2147422646,2148008512,2147877824,2147644553,2147057115,2148254116,2147198409,201,4,13,17590
1338915085,5810,998.1699829101562000,47.6104698181152340,673.9680175781250000,4.1670298576354980,54.0561103820800800,53,99,92,80,84,15326,2147758948,2147426377,2148008914,2147876187,2147643547,2147057526,2148263122,2147202459,2963,4,13,18081
1338918685,5806,990.4699707031250000,47.4799499511718750,674.9929199218750000,4.1331210136413570,54.0854301452636700,52,100,90,79,84,15327,2147760246,2147421467,2148008960,2147875126,2147643894,2147059776,2148262153,2147199853,3043,4,13,28410
1338922285,5810,990.1900024414062000,47.7397117614746100,675.6987304687500000,4.1097640991210940,54.0573501586914060,52,99,87,77,82,15326,2147760192,2147421988,2148009115,2147875154,2147642578,2147057398,2148263122,2147204068,337,4,13,49000
1338925856,5809,998.5000000000000000,48.0680618286132800,674.7520141601562000,4.1410918235778810,53.9962005615234400,52,99,105,79,84,15348,2147758921,2147420854,2148012918,2147876900,2147645595,2147058724,2148268361,2147195684,2691,4,13,33324
